[[{"header":{"parameterUnit":"m.s-1","parameterCategory":1,"la1":30.2991,"la2":30.254,"lo1":-89.0895,"lo2":-89.0444,"dy":0.0017,"dx":0.0017,"nx":28,"ny":28,"refTime":"2024-10-05T21:00:00:Z","depth":0,"parameterNumber":2,"parameterNumberName":"U-component_of_WINDS"},"data":[0,0,0,0,0,0,0,0,0,0,0,0,0,0,0,0,0,0,0,0,0,0,0,0,0,0,0,0,0,0,0,0,0,0,0,0,0,0,0,0,0,0,0,0,0,0,0,0,0,0,0,0,0,0,0,0,0,0,-1.6625,-1.6625,0,-1.6592,-1.6591,-1.6591,-1.6575,-1.6575,-1.6575,-1.6575,-1.6541,-1.654,-1.6539,0,0,0,0,0,0,0,0,0,0,0,0,0,-1.6675,-1.6675,-1.6625,-1.6625,-1.6624,-1.6592,-1.6591,-1.6591,-1.6575,-1.6575,-1.6575,-1.6575,-1.6541,-1.654,-1.6539,0,0,0,0,0,0,0,0,0,0,0,0,0,-1.6649,-1.6674,-1.6625,-1.6612,-1.6611,-1.6592,-1.6591,-1.6591,-1.6575,-1.6575,-1.6575,-1.6575,-1.6541,-1.654,-1.6539,-1.653,0,0,-1.6534,-1.6534,0,0,0,0,0,0,0,0,-1.6651,-1.6647,-1.6615,-1.6613,-1.6611,-1.6587,-1.6596,-1.657,-1.6575,-1.6588,-1.6575,-1.6575,-1.6556,-1.6554,-1.6547,-1.6528,-1.6527,-1.6534,-1.6533,-1.6533,-1.6532,0,0,0,0,0,0,0,-1.6652,-1.6649,-1.6612,-1.6614,-1.6612,-1.6608,-1.6605,-1.6591,-1.6573,-1.6587,-1.6586,-1.6582,-1.6555,-1.6549,-1.6546,-1.6526,-1.6534,-1.6533,-1.6532,-1.6532,-1.6499,-1.6499,0,0,0,0,0,0,-1.6656,-1.665,-1.6613,-1.6611,-1.6631,-1.6607,-1.6603,-1.6595,-1.6573,-1.6569,-1.6582,-1.6581,-1.6551,-1.6548,-1.6545,-1.6534,-1.6533,-1.6532,-1.6531,-1.6499,-1.6499,-1.6499,0,0,0,0,0,0,-1.6657,-1.6653,-1.6614,-1.663,-1.6625,-1.6607,-1.6597,-1.6594,-1.6588,-1.6569,-1.6566,-1.6579,-1.6551,-1.6547,-1.6534,-1.6532,-1.6531,-1.653,-1.6499,-1.6499,-1.6499,-1.6511,0,0,0,0,0,0,-1.6659,-1.6654,-1.665,-1.663,-1.6624,-1.6603,-1.6597,-1.6594,-1.6585,-1.6584,-1.6565,-1.6562,-1.6551,-1.6536,-1.6533,-1.653,-1.6529,-1.65,-1.6499,-1.6499,-1.651,-1.6511,-1.6512,0,0,0,0,0,-1.6661,-1.6654,-1.665,-1.6645,-1.6619,-1.6603,-1.66,-1.6587,-1.6585,-1.6581,-1.657,-1.6562,-1.6533,-1.6535,-1.6531,-1.6528,-1.65,-1.6499,-1.6499,-1.651,-1.6511,-1.6512,0,0,0,0,0,0,-1.6674,-1.6652,-1.6646,-1.6633,-1.662,-1.6601,-1.6595,-1.6588,-1.6576,-1.6575,-1.656,-1.6556,-1.6544,-1.6535,-1.6537,-1.6519,-1.6516,-1.6515,-1.6525,-1.6526,-1.6526,-1.6529,-1.6528,0,0,0,0,0,-1.6676,-1.6665,-1.6646,-1.6636,-1.663,-1.6614,-1.6607,-1.6598,-1.6584,-1.6578,-1.6566,-1.6552,-1.654,-1.6533,-1.6521,-1.6509,-1.6505,-1.6506,-1.6506,-1.6507,-1.6506,-1.65,-1.65,-1.6499,-1.6499,-1.6499,0,0,-1.6679,-1.6665,-1.6659,-1.6638,-1.6627,-1.6616,-1.6609,-1.6598,-1.659,-1.6577,-1.6563,-1.6554,-1.6538,-1.6526,-1.652,-1.6518,-1.6505,-1.6507,-1.6507,-1.6506,-1.65,-1.65,-1.65,-1.6499,-1.6499,-1.6499,0,0,-1.6678,-1.6667,-1.6658,-1.6647,-1.663,-1.662,-1.6618,-1.6599,-1.6592,-1.6579,-1.6569,-1.6559,-1.6539,-1.6528,-1.652,-1.6517,-1.651,-1.6513,-1.6516,-1.651,-1.651,-1.651,-1.6509,-1.6509,-1.6513,-1.6513,-1.6513,0,-1.6684,-1.6667,-1.6654,-1.6643,-1.6634,-1.6622,-1.6613,-1.6604,-1.6584,-1.6578,-1.6576,-1.6551,-1.6539,-1.6525,-1.6524,-1.6518,-1.6515,-1.6515,-1.6511,-1.6511,-1.6511,-1.651,-1.6509,-1.6513,-1.6513,-1.6513,-1.6513,0,-1.6675,-1.6663,-1.6658,-1.6639,-1.663,-1.662,-1.6606,-1.6598,-1.6591,-1.6581,-1.6568,-1.6554,-1.6539,-1.6535,-1.6527,-1.6519,-1.6519,-1.6514,-1.6511,-1.6512,-1.651,-1.651,-1.6514,-1.6514,-1.6514,-1.6514,0,0,-1.6681,-1.6656,-1.6654,-1.6646,-1.6627,-1.6618,-1.6608,-1.6593,-1.6587,-1.6574,-1.6566,-1.6549,-1.6545,-1.6536,-1.6527,-1.6522,-1.6521,-1.6518,-1.6518,-1.6519,-1.6511,-1.6514,-1.6514,-1.6516,-1.6516,-1.6516,-1.6512,0,-1.6678,-1.6659,-1.6647,-1.6633,-1.6622,-1.6611,-1.6602,-1.659,-1.6581,-1.657,-1.656,-1.6549,-1.6544,-1.6539,-1.6533,-1.6522,-1.6519,-1.6522,-1.6508,-1.6507,-1.6511,-1.6513,-1.6516,-1.6513,-1.6512,-1.6512,-1.6512,0,-1.6671,-1.6659,-1.6643,-1.6626,-1.6622,-1.6614,-1.66,-1.659,-1.6576,-1.657,-1.656,-1.6552,-1.6541,-1.6539,-1.6524,-1.6527,-1.652,-1.6514,-1.6514,-1.6511,-1.6509,-1.6511,-1.6512,-1.6512,-1.651,-1.6511,-1.6511,0,-1.6677,-1.6657,-1.6645,-1.6638,-1.6618,-1.6613,-1.6604,-1.6591,-1.6583,-1.6571,-1.6566,-1.6553,-1.6545,-1.6536,-1.6524,-1.6523,-1.651,-1.6507,-1.6505,-1.6505,-1.6502,-1.6502,-1.6502,-1.6499,-1.6499,-1.6499,-1.6499,0,-1.6674,-1.6665,-1.6647,-1.664,-1.663,-1.6617,-1.6607,-1.6598,-1.6586,-1.6577,-1.6567,-1.6559,-1.6544,-1.6534,-1.6525,-1.6514,-1.6511,-1.6506,-1.6504,-1.6507,-1.6507,-1.6502,-1.6501,-1.6499,-1.6499,-1.6499,-1.6499,0,-1.6679,-1.6667,-1.6653,-1.6635,-1.6631,-1.6624,-1.6609,-1.6602,-1.6592,-1.6581,-1.6578,-1.6563,-1.6551,-1.6538,-1.6522,-1.6516,-1.6505,-1.6502,-1.651,-1.6508,-1.6507,-1.6507,-1.6503,-1.6502,-1.6499,-1.6499,-1.6499,0,-1.6678,-1.6671,-1.6653,-1.6646,-1.6637,-1.6627,-1.6619,-1.6606,-1.6598,-1.6582,-1.6577,-1.6564,-1.6553,-1.6535,-1.6523,-1.651,-1.6507,-1.6506,-1.6505,-1.6508,-1.6506,-1.6507,-1.6506,-1.6506,-1.6507,-1.6507,-1.6507,0,-1.6677,-1.6672,-1.666,-1.6647,-1.6638,-1.6627,-1.6616,-1.6611,-1.6596,-1.6588,-1.6575,-1.6567,-1.655,-1.6538,-1.6524,-1.6516,-1.6509,-1.6507,-1.6506,-1.6509,-1.6514,-1.6511,-1.6511,-1.6507,-1.6507,-1.6507,-1.6507,-1.6507,-1.6679,-1.6672,-1.6658,-1.6646,-1.6637,-1.6626,-1.6619,-1.6608,-1.6598,-1.6583,-1.6577,-1.6564,-1.6551,-1.6532,-1.6524,-1.6514,-1.6512,-1.6511,-1.651,-1.651,-1.651,-1.6516,-1.6512,-1.6512,-1.6512,-1.6512,-1.6512,0,-1.6678,-1.6668,-1.6657,-1.6642,-1.6633,-1.6627,-1.6614,-1.6607,-1.6596,-1.6585,-1.6574,-1.656,-1.6548,-1.6536,-1.6523,-1.6518,-1.6514,-1.6515,-1.6515,-1.6513,-1.6513,-1.6515,-1.6518,-1.6518,-1.6518,-1.6518,-1.6518,-1.6518,-1.6676,-1.6664,-1.6657,-1.6641,-1.6631,-1.6619,-1.6612,-1.6603,-1.6594,-1.6578,-1.6568,-1.656,-1.6548,-1.6535,-1.6524,-1.6521,-1.6516,-1.6518,-1.6514,-1.6514,-1.6513,-1.6513,-1.6515,-1.6517,-1.6517,-1.6514,-1.6514,-1.6514]},{"header":{"parameterUnit":"m.s-1","parameterCategory":1,"la1":30.2991,"la2":30.254,"lo1":-89.0895,"lo2":-89.0444,"dy":0.0017,"dx":0.0017,"nx":28,"ny":28,"refTime":"2024-10-05T21:00:00:Z","depth":0,"parameterNumber":3,"parameterNumberName":"V-component_of_WINDS"},"data":[0,0,0,0,0,0,0,0,0,0,0,0,0,0,0,0,0,0,0,0,0,0,0,0,0,0,0,0,0,0,0,0,0,0,0,0,0,0,0,0,0,0,0,0,0,0,0,0,0,0,0,0,0,0,0,0,0,0,-2.2306,-2.2306,0,-2.2316,-2.2316,-2.2316,-2.2409,-2.2411,-2.2414,-2.2416,-2.2423,-2.2421,-2.2419,0,0,0,0,0,0,0,0,0,0,0,0,0,-2.2367,-2.2365,-2.2306,-2.2306,-2.2306,-2.2315,-2.2316,-2.2316,-2.2409,-2.2411,-2.2414,-2.2417,-2.2424,-2.2422,-2.2419,0,0,0,0,0,0,0,0,0,0,0,0,0,-2.2355,-2.2365,-2.2306,-2.2353,-2.2358,-2.2315,-2.2316,-2.2316,-2.2408,-2.2412,-2.2415,-2.2418,-2.2425,-2.2422,-2.2419,-2.233,0,0,-2.241,-2.2408,0,0,0,0,0,0,0,0,-2.2355,-2.2352,-2.2346,-2.235,-2.2355,-2.2365,-2.234,-2.2321,-2.2407,-2.2389,-2.2416,-2.242,-2.2401,-2.24,-2.2394,-2.2331,-2.2331,-2.2409,-2.2408,-2.2406,-2.2406,0,0,0,0,0,0,0,-2.2356,-2.2352,-2.2309,-2.2346,-2.2351,-2.2374,-2.2377,-2.2337,-2.2375,-2.2391,-2.2398,-2.2398,-2.2404,-2.2397,-2.2395,-2.2331,-2.241,-2.2407,-2.2405,-2.2404,-2.22,-2.2196,0,0,0,0,0,0,-2.235,-2.2353,-2.2309,-2.231,-2.2364,-2.237,-2.2373,-2.2358,-2.2376,-2.2382,-2.2395,-2.2402,-2.24,-2.2398,-2.2395,-2.2295,-2.2406,-2.2404,-2.2402,-2.2203,-2.2199,-2.2195,0,0,0,0,0,0,-2.2351,-2.2346,-2.2309,-2.2333,-2.233,-2.2366,-2.2348,-2.2356,-2.2349,-2.2379,-2.2386,-2.238,-2.2403,-2.24,-2.2347,-2.2297,-2.2402,-2.24,-2.2208,-2.2202,-2.2197,-2.2092,0,0,0,0,0,0,-2.2353,-2.2345,-2.2312,-2.2332,-2.2329,-2.2259,-2.2345,-2.2354,-2.2344,-2.2354,-2.2367,-2.2373,-2.2405,-2.2351,-2.2344,-2.2294,-2.2397,-2.2212,-2.2205,-2.2199,-2.21,-2.2084,-2.207,0,0,0,0,0,-2.2355,-2.228,-2.231,-2.2304,-2.2287,-2.2256,-2.2254,-2.2294,-2.234,-2.2307,-2.2326,-2.2372,-2.2304,-2.2345,-2.2338,-2.2286,-2.2216,-2.2207,-2.2199,-2.2107,-2.2087,-2.207,0,0,0,0,0,0,-2.2251,-2.2284,-2.2316,-2.2247,-2.2248,-2.2272,-2.2231,-2.2271,-2.2259,-2.2268,-2.2318,-2.232,-2.226,-2.2268,-2.2313,-2.2204,-2.2268,-2.2258,-2.22,-2.2181,-2.2166,-2.2165,-2.2395,0,0,0,0,0,-2.2221,-2.2194,-2.2223,-2.2159,-2.2158,-2.2194,-2.2182,-2.2213,-2.2217,-2.2217,-2.2233,-2.2234,-2.2213,-2.2198,-2.218,-2.2103,-2.2108,-2.2064,-2.2049,-2.2037,-2.2027,-2.1989,-2.1971,-2.2168,-2.2168,-2.2168,0,0,-2.2157,-2.2171,-2.215,-2.2139,-2.2143,-2.2114,-2.2194,-2.2159,-2.2138,-2.2212,-2.2164,-2.2175,-2.218,-2.2115,-2.2087,-2.212,-2.1974,-2.2026,-2.2016,-2.2013,-2.1979,-2.196,-2.1944,-2.2163,-2.2164,-2.2164,0,0,-2.2025,-2.2033,-2.1981,-2.1986,-2.1993,-2.2019,-2.2006,-2.2025,-2.2036,-2.1989,-2.2045,-2.2021,-2.1983,-2.1985,-2.1981,-2.1855,-2.1897,-2.1848,-2.1767,-2.173,-2.1715,-2.1701,-2.1657,-2.1641,-2.1838,-2.1838,-2.1838,0,-2.1944,-2.1902,-2.1949,-2.1912,-2.1906,-2.1974,-2.1923,-2.1924,-2.1925,-2.1919,-2.1956,-2.1913,-2.1921,-2.1859,-2.1829,-2.1823,-2.1811,-2.1846,-2.1713,-2.17,-2.1688,-2.1647,-2.163,-2.1832,-2.1833,-2.1833,-2.1834,0,-2.1803,-2.1774,-2.1732,-2.1733,-2.1722,-2.1678,-2.1718,-2.1702,-2.1735,-2.1757,-2.171,-2.1722,-2.1709,-2.1697,-2.1728,-2.164,-2.1661,-2.1705,-2.177,-2.1663,-2.1625,-2.1609,-2.1823,-2.1826,-2.1827,-2.1829,0,0,-2.1603,-2.1635,-2.1618,-2.1621,-2.1637,-2.1615,-2.1575,-2.1564,-2.155,-2.1549,-2.1517,-2.1486,-2.1528,-2.1524,-2.1556,-2.1523,-2.1425,-2.1572,-2.1573,-2.1545,-2.1331,-2.1298,-2.1278,-2.1454,-2.1451,-2.1449,-2.1331,0,-2.1477,-2.1411,-2.1454,-2.1381,-2.1355,-2.1422,-2.1388,-2.1394,-2.1414,-2.1395,-2.1418,-2.1395,-2.1452,-2.145,-2.1421,-2.1443,-2.1383,-2.1452,-2.1425,-2.1423,-2.1421,-2.1259,-2.1222,-2.111,-2.1317,-2.1314,-2.1312,0,-2.132,-2.1316,-2.124,-2.1264,-2.1255,-2.1223,-2.1219,-2.1201,-2.121,-2.1227,-2.1224,-2.1266,-2.1229,-2.1295,-2.1246,-2.1292,-2.1284,-2.1294,-2.1291,-2.1289,-2.1361,-2.1253,-2.1075,-2.1058,-2.1289,-2.1291,-2.1293,0,-2.1183,-2.1158,-2.1111,-2.1111,-2.1137,-2.1114,-2.1123,-2.1136,-2.1129,-2.1125,-2.1121,-2.1112,-2.1107,-2.11,-2.1139,-2.1182,-2.1085,-2.1153,-2.1099,-2.1098,-2.1074,-2.1075,-2.0892,-2.1069,-2.1069,-2.1069,-2.107,0,-2.1037,-2.0989,-2.105,-2.102,-2.0969,-2.102,-2.0968,-2.0985,-2.0996,-2.0972,-2.1029,-2.1005,-2.1058,-2.104,-2.107,-2.1026,-2.1023,-2.1037,-2.1045,-2.1031,-2.103,-2.1026,-2.1035,-2.1065,-2.1066,-2.1067,-2.1067,0,-2.0874,-2.0913,-2.0866,-2.0897,-2.0903,-2.0864,-2.089,-2.0865,-2.0891,-2.086,-2.0855,-2.0895,-2.0877,-2.0916,-2.0903,-2.0924,-2.0861,-2.0882,-2.0858,-2.0864,-2.0808,-2.0813,-2.0617,-2.0594,-2.0785,-2.0783,-2.0781,0,-2.0778,-2.0743,-2.0771,-2.076,-2.0768,-2.0748,-2.0741,-2.0791,-2.0782,-2.0792,-2.0766,-2.0753,-2.0745,-2.0714,-2.0741,-2.0733,-2.0754,-2.0686,-2.0752,-2.0741,-2.0754,-2.0755,-2.0753,-2.0671,-2.0669,-2.0667,-2.0666,0,-2.0604,-2.0627,-2.0615,-2.0611,-2.0603,-2.0601,-2.0604,-2.0592,-2.0645,-2.0632,-2.0615,-2.061,-2.0598,-2.0585,-2.0583,-2.0594,-2.0639,-2.0645,-2.0632,-2.0617,-2.0605,-2.0612,-2.0821,-2.0649,-2.065,-2.0652,-2.0653,-2.0653,-2.0472,-2.0446,-2.0462,-2.0449,-2.0457,-2.0459,-2.0438,-2.0463,-2.045,-2.0446,-2.0476,-2.0454,-2.0467,-2.047,-2.0476,-2.046,-2.049,-2.0471,-2.0466,-2.0461,-2.0452,-2.0609,-2.0459,-2.046,-2.0461,-2.0461,-2.0461,0,-2.0302,-2.0317,-2.0305,-2.0309,-2.0298,-2.0344,-2.0351,-2.0339,-2.0319,-2.0329,-2.0321,-2.0304,-2.0292,-2.0321,-2.0314,-2.0296,-2.0316,-2.0292,-2.0294,-2.0296,-2.0424,-2.0437,-2.0276,-2.0276,-2.0276,-2.0276,-2.0276,-2.0276,-2.0212,-2.017,-2.0195,-2.0158,-2.0174,-2.0153,-2.0154,-2.0157,-2.0165,-2.0143,-2.0135,-2.0155,-2.0173,-2.0169,-2.0161,-2.017,-2.0165,-2.0134,-2.015,-2.0269,-2.0287,-2.0304,-2.0316,-2.0132,-2.0132,-2.0023,-2.0022,-2.0021]}]]